Tracking 31027 objects as of 19-Jul-2025
HD Live streaming from Space Station
objects crossing your sky now

DMSP 5D-2 F13 DEB

Track DMSP 5D-2 F13 DEB now!
10-day predictions


NORAD ID: 42268
Int'l Code: 1995-015GJ
Perigee: 800.9 km
Apogee: 970.6 km
Inclination: 98.7 °
Period: 102.5 minutes
Semi major axis: 7256 km
RCS: Unknown
Launch date: March 24, 1995
Source: United States (US)
Launch site: AIR FORCE WESTERN TEST RANGE (AFWTR)

Note: This is SATELLITE DEBRIS
Your satellite tracking list
FENGYUN 1C DEB
Track 1 satellite(s)




NASA's NSSDC Master Catalog

Two Line Element Set (TLE):
1 42268U 95015GJ  25193.00546393  .00002941  00000-0  17623-2 0  9999
2 42268  98.7478  38.6460 0116944 229.6842 129.4062 14.04404486519488
Source of the keplerian elements: AFSPC